Lid_Strength_Index
7 8 8 8 8 8 8 8 8 8 7 6 6 6 7 7 6 6 6 5 6 7 8 7 7 7 8 8 7 7 7 7 8 7 6 5 6 6 6 5 5 5 3
8 8 8 8 8 8 8 8 8 8 8 7 7 6 5 5 5 6 5 5 7 8 7 8 7 6 8 8 8 8 8 7 8 9 8 8 7 6 7 7 5 4 5
9 9 9 9 8 8 8 8 8 8 7 7 5 6 5 5 5 5 6 7 7 7 7 8 8 8 9 9 8 8 8 6 7 8 8 8 8 8 8 8 7 7 5
10 9 9 8 8 8 9 9 8 7 6 5 5 5 5 4 5 6 7 7 7 7 7 7 8 8 9 8 8 8 6 7 7 7 7 8 8 7 8 8 9 8 8
10 9 9 8 8 8 8 8 7 5 4 4 5 6 5 5 6 7 7 7 8 8 7 7 7 6 5 6 7 8 8 8 6 6 7 7 7 8 9 8 9 10 9
10 9 8 8 8 8 8 7 6 5 5 5 5 6 6 6 4 4 5 7 7 8 8 8 7 6 7 6 6 6 6 7 7 7 7 8 8 9 9 9 9 11 11
10 9 9 9 8 8 7 7 6 5 4 7 6 7 7 7 4 5 5 7 8 8 8 8 8 8 8 8 7 6 6 5 5 6 7 7 8 7 8 9 10 10 11
10 9 9 9 9 8 7 7 7 6 6 7 8 7 8 7 6 6 6 9 9 9 9 9 9 9 8 8 7 6 7 5 5 5 5 6 7 7 7 7 8 8 9
10 10 9 9 8 8 7 7 7 6 7 7 7 8 9 9 7 7 8 10 10 10 9 9 9 9 8 6 7 7 7 6 4 4 4 4 4 5 4 6 7 8 10
10 9 9 9 9 8 7 6 6 7 7 7 8 8 8 10 8 8 8 11 14 10 10 9 9 8 7 7 8 8 8 7 6 6 7 6 6 7 6 7 8 10 11
9 9 9 9 9 8 7 7 7 7 8 9 10 9 9 9 10 8 8 11 11 10 10 10 9 8 8 7 7 8 7 7 6 6 7 7 7 7 7 7 8 10 11
9 10 9 9 8 8 9 8 8 8 9 10 17 14 11 11 9 9 8 8 8 10 10 10 10 9 9 8 8 8 8 8 8 8 8 8 8 8 7 7 7 8 8
10 10 9 8 8 8 9 9 9 9 11 11 10 14 12 10 11 9 8 8 8 11 11 10 9 10 10 10 9 9 10 10 10 10 10 9 8 7 7 7 7 7 7
9 8 8 8 8 8 8 8 9 11 13 10 12 13 14 13 13 12 10 13 9 11 12 13 12 11 12 12 12 11 11 11 11 11 11 10 8 8 8 7 8 8 8
8 7 8 8 8 8 8 8 8 8 9 11 12 13 20 19 14 8 9 11 14 12 16 17 15 14 15 14 13 13 13 12 13 13 13 12 11 10 10 9 9 10 12
7 7 7 8 9 8 8 8 6 6 6 6 6 13 15 10 8 7 8 9 9 10 16 20 21 19 16 15 15 15 15 15 14 13 13 13 13 12 11 10 10 11 11
7 6 6 7 8 9 10 9 10 9 6 6 6 6 7 8 7 8 8 10 10 12 19 20 23 20 19 15 15 16 16 16 16 15 15 15 14 13 12 12 12 12 12
6 7 7 7 7 8 10 10 12 12 14 13 9 7 6 7 7 8 9 11 16 16 18 20 21 21 19 16 15 16 17 18 18 18 17 17 16 15 14 13 13 15 14
6 6 7 8 11 11 11 13 12 13 13 13 14 12 12 7 8 8 10 18 19 19 18 18 21 19 19 19 21 19 19 19 20 21 19 19 18 16 15 14 14 16 16
5 6 8 9 10 9 8 10 10 9 13 13 15 15 15 16 19 21 23 25 24 20 20 18 17 18 21 21 24 25 20 20 19 20 21 21 20 19 16 16 15 18 17
5 6 7 8 8 7 9 9 9 11 9 13 14 16 14 15 16 17 17 21 19 18 20 18 20 22 22 23 20 23 23 24 20 20 20 20 21 20 18 18 17 17 16
5 6 7 7 7 11 12 10 11 11 10 13 14 15 16 18 16 15 17 16 18 18 17 19 19 19 19 19 21 25 24 26 23 21 20 20 19 19 19 19 20 22 19
5 6 8 10 11 13 15 14 14 12 9 12 11 13 17 17 15 15 16 15 18 19 18 20 21 19 21 23 24 21 22 22 23 22 21 21 19 18 20 21 20 20 21
5 7 9 11 15 15 16 15 16 13 11 11 11 15 15 16 16 16 16 17 20 20 22 20 18 18 19 22 24 22 19 22 22 21 22 20 19 18 20 20 19 21 22
5 8 10 11 13 13 14 14 14 13 9 9 12 11 12 14 16 15 16 17 18 21 18 19 19 18 18 19 20 19 21 19 21 21 21 20 20 20 19 20 22 20 22
5 7 8 8 9 10 10 11 10 10 11 9 9 10 11 11 11 13 15 17 18 18 18 21 19 18 18 19 19 18 20 20 21 20 21 19 19 19 20 20 21 20 20